| time (UTC) | temp F | wind direction | speed MPH | gust MPH | rain 1hr in | rain 24hr in | rain mn in | humidity % | barometer mb |
| 20260506155009 | 58 | 242 | 1.0 | 4.0 | 0.00 | 0.00 | 0.00 | 79 | 1019.3 |
| 20260506154002 | 57 | 142 | 0.0 | 7.0 | 0.00 | 0.00 | 0.00 | 80 | 1019.2 |
| 20260506153503 | 57 | 360 | 3.0 | 7.0 | 0.00 | 0.00 | 0.00 | 80 | 1019.2 |
| 20260506153002 | 57 | 241 | 0.0 | 5.0 | 0.00 | 0.00 | 0.00 | 80 | 1019.3 |
| 20260506152003 | 57 | 192 | 1.0 | 6.0 | 0.00 | 0.00 | 0.00 | 81 | 1019.2 |
| 20260506151502 | 57 | 193 | 2.0 | 6.0 | 0.00 | 0.00 | 0.00 | 82 | 1019.2 |
| 20260506151002 | 56 | 142 | 1.0 | 7.0 | 0.00 | 0.00 | 0.00 | 82 | 1019.3 |
| 20260506150002 | 56 | 195 | 2.0 | 6.0 | 0.00 | 0.00 | 0.00 | 82 | 1019.2 |
| 20260506145501 | 56 | 174 | 2.0 | 6.0 | 0.00 | 0.00 | 0.00 | 83 | 1019.2 |
| 20260506145001 | 56 | 169 | 1.0 | 5.0 | 0.00 | 0.00 | 0.00 | 83 | 1019.1 |
| 20260506144501 | 56 | 159 | 1.0 | 5.0 | 0.00 | 0.00 | 0.00 | 83 | 1019.2 |
| 20260506144002 | 55 | 163 | 2.0 | 4.0 | 0.00 | 0.00 | 0.00 | 83 | 1019.1 |
| 20260506143500 | 55 | 179 | 1.0 | 4.0 | 0.00 | 0.00 | 0.00 | 83 | 1019.1 |
| 20260506143000 | 55 | 154 | 3.0 | 4.0 | 0.00 | 0.00 | 0.00 | 83 | 1019.1 |
| 20260506142501 | 55 | 161 | 2.0 | 4.0 | 0.00 | 0.00 | 0.00 | 83 | 1019.0 |
| 20260506142000 | 55 | 161 | 4.0 | 5.0 | 0.00 | 0.00 | 0.00 | 83 | 1018.9 |
| 20260506141500 | 55 | 151 | 1.0 | 5.0 | 0.00 | 0.00 | 0.00 | 83 | 1018.9 |
| 20260506141000 | 55 | 165 | 2.0 | 4.0 | 0.00 | 0.00 | 0.00 | 84 | 1018.8 |
| 20260506140500 | 55 | 178 | 2.0 | 4.0 | 0.00 | 0.00 | 0.00 | 84 | 1018.8 |
| 20260506135459 | 55 | 161 | 0.0 | 5.0 | 0.00 | 0.00 | 0.00 | 84 | 1018.7 |
| 20260506134959 | 55 | 144 | 4.0 | 4.0 | 0.00 | 0.00 | 0.00 | 84 | 1018.6 |
| 20260506134459 | 55 | 165 | 1.0 | 3.0 | 0.00 | 0.00 | 0.00 | 84 | 1018.6 |
| 20260506133002 | 55 | 219 | 0.0 | 0.0 | 0.00 | 0.00 | 0.00 | 83 | 1018.6 |
| 20260506132458 | 55 | 219 | 0.0 | 0.0 | 0.00 | 0.00 | 0.00 | 83 | 1018.5 |
| 20260506131958 | 55 | 219 | 0.0 | 0.0 | 0.00 | 0.00 | 0.00 | 83 | 1018.5 |
| 20260506131459 | 55 | 219 | 0.0 | 0.0 | 0.00 | 0.00 | 0.00 | 83 | 1018.5 |
| 20260506130958 | 55 | 219 | 0.0 | 0.0 | 0.00 | 0.00 | 0.00 | 83 | 1018.3 |
| 20260506130458 | 55 | 220 | 0.0 | 0.0 | 0.00 | 0.00 | 0.00 | 83 | 1018.3 |
| 20260506125958 | 55 | 219 | 0.0 | 0.0 | 0.00 | 0.00 | 0.00 | 83 | 1018.3 |
| 20260506124957 | 55 | 219 | 0.0 | 0.0 | 0.00 | 0.00 | 0.00 | 83 | 1018.3 |
| 20260506124458 | 55 | 213 | 0.0 | 0.0 | 0.00 | 0.00 | 0.00 | 83 | 1018.2 |
| 20260506123457 | 55 | 213 | 0.0 | 0.0 | 0.00 | 0.00 | 0.00 | 83 | 1018.3 |
| 20260506122957 | 55 | 209 | 0.0 | 4.0 | 0.00 | 0.00 | 0.00 | 83 | 1018.3 |
| 20260506121957 | 55 | 159 | 0.0 | 3.0 | 0.00 | 0.00 | 0.00 | 83 | 1018.3 |
| 20260506120956 | 55 | 157 | 0.0 | 2.0 | 0.00 | 0.00 | 0.00 | 83 | 1018.2 |
| 20260506120457 | 55 | 202 | 0.0 | 3.0 | 0.00 | 0.00 | 0.00 | 83 | 1018.2 |
| 20260506115957 | 55 | 205 | 0.0 | 3.0 | 0.00 | 0.00 | 0.00 | 83 | 1018.2 |
| 20260506115456 | 55 | 195 | 0.0 | 5.0 | 0.00 | 0.00 | 0.00 | 83 | 1018.2 |
| 20260506114956 | 55 | 194 | 2.0 | 5.0 | 0.00 | 0.00 | 0.00 | 83 | 1018.1 |
| 20260506114456 | 55 | 195 | 0.0 | 0.0 | 0.00 | 0.00 | 0.00 | 83 | 1018.1 |
| 20260506113958 | 55 | 195 | 0.0 | 0.0 | 0.00 | 0.00 | 0.00 | 83 | 1018.1 |
| 20260506112957 | 55 | 195 | 0.0 | 3.0 | 0.00 | 0.00 | 0.00 | 83 | 1018.1 |
| 20260506111955 | 55 | 195 | 2.0 | 3.0 | 0.00 | 0.00 | 0.00 | 84 | 1017.9 |
| 20260506111456 | 55 | 217 | 0.0 | 3.0 | 0.00 | 0.00 | 0.00 | 84 | 1017.9 |
| 20260506110455 | 55 | 199 | 0.0 | 3.0 | 0.00 | 0.00 | 0.00 | 84 | 1017.8 |
| 20260506105954 | 55 | 219 | 0.0 | 3.0 | 0.00 | 0.00 | 0.00 | 84 | 1017.7 |
| 20260506104954 | 55 | 165 | 0.0 | 0.0 | 0.00 | 0.00 | 0.00 | 84 | 1017.7 |
| 20260506104454 | 55 | 165 | 0.0 | 0.0 | 0.00 | 0.00 | 0.00 | 84 | 1017.7 |
| 20260506103954 | 55 | 165 | 0.0 | 0.0 | 0.00 | 0.00 | 0.00 | 84 | 1017.7 |
| 20260506103455 | 55 | 189 | 0.0 | 3.0 | 0.00 | 0.00 | 0.00 | 84 | 1017.6 |
| 20260506102954 | 55 | 201 | 0.0 | 4.0 | 0.00 | 0.00 | 0.00 | 84 | 1017.5 |
| 20260506101954 | 54 | 178 | 2.0 | 4.0 | 0.00 | 0.00 | 0.00 | 84 | 1017.6 |
| 20260506101457 | 55 | 153 | 0.0 | 4.0 | 0.00 | 0.00 | 0.00 | 84 | 1017.5 |
| 20260506100953 | 54 | 153 | 1.0 | 4.0 | 0.00 | 0.00 | 0.00 | 84 | 1017.4 |
| 20260506100453 | 54 | 213 | 0.0 | 4.0 | 0.00 | 0.00 | 0.00 | 84 | 1017.5 |
| 20260506095453 | 54 | 183 | 1.0 | 4.0 | 0.00 | 0.00 | 0.00 | 84 | 1017.5 |
| 20260506094952 | 54 | 194 | 2.0 | 4.0 | 0.00 | 0.00 | 0.00 | 84 | 1017.5 |
| 20260506093952 | 54 | 191 | 2.0 | 5.0 | 0.00 | 0.00 | 0.00 | 84 | 1017.4 |
| 20260506093453 | 54 | 198 | 1.0 | 5.0 | 0.00 | 0.00 | 0.00 | 84 | 1017.4 |
| 20260506092952 | 54 | 182 | 3.0 | 5.0 | 0.00 | 0.00 | 0.00 | 84 | 1017.4 |
| 20260506092451 | 54 | 194 | 2.0 | 5.0 | 0.00 | 0.00 | 0.00 | 84 | 1017.4 |
| 20260506091951 | 54 | 176 | 1.0 | 5.0 | 0.00 | 0.00 | 0.00 | 84 | 1017.5 |
| 20260506091457 | 54 | 225 | 0.0 | 3.0 | 0.00 | 0.00 | 0.00 | 84 | 1017.5 |
| 20260506090952 | 54 | 184 | 0.0 | 4.0 | 0.00 | 0.00 | 0.00 | 84 | 1017.4 |
| 20260506090451 | 54 | 212 | 1.0 | 4.0 | 0.00 | 0.00 | 0.00 | 84 | 1017.5 |
| 20260506085951 | 54 | 193 | 1.0 | 3.0 | 0.00 | 0.00 | 0.00 | 84 | 1017.5 |
| 20260506085451 | 54 | 220 | 0.0 | 4.0 | 0.00 | 0.01 | 0.00 | 84 | 1017.6 |
| 20260506084952 | 54 | 211 | 0.0 | 5.0 | 0.00 | 0.01 | 0.00 | 84 | 1017.5 |
| 20260506083951 | 54 | 192 | 0.0 | 4.0 | 0.00 | 0.02 | 0.00 | 84 | 1017.6 |
| 20260506082954 | 54 | 195 | 1.0 | 8.0 | 0.00 | 0.02 | 0.00 | 84 | 1017.4 |
| 20260506081949 | 54 | 209 | 0.0 | 7.0 | 0.00 | 0.02 | 0.00 | 84 | 1017.4 |
| 20260506081450 | 54 | 178 | 2.0 | 7.0 | 0.00 | 0.02 | 0.00 | 84 | 1017.4 |
| 20260506080950 | 54 | 205 | 2.0 | 10.0 | 0.00 | 0.03 | 0.00 | 84 | 1017.4 |
| 20260506080450 | 54 | 188 | 2.0 | 10.0 | 0.00 | 0.03 | 0.00 | 84 | 1017.4 |
| 20260506073448 | 54 | 175 | 4.0 | 4.0 | 0.00 | 0.07 | 0.07 | 83 | 1017.2 |
| 20260506072949 | 54 | 161 | 2.0 | 6.0 | 0.00 | 0.07 | 0.07 | 83 | 1017.3 |
| 20260506072449 | 54 | 136 | 3.0 | 6.0 | 0.00 | 0.08 | 0.07 | 83 | 1017.2 |
| 20260506071448 | 54 | 167 | 3.0 | 6.0 | 0.00 | 0.08 | 0.07 | 83 | 1017.1 |
| 20260506071018 | 55 | 167 | 3.0 | 6.0 | 0.00 | 0.09 | 0.07 | 83 | 1017.1 |
| 20260506062517 | 55 | 360 | 3.0 | 6.0 | 0.00 | 0.13 | 0.07 | 81 | 1016.7 |
| 20260506062016 | 55 | 219 | 4.0 | 6.0 | 0.00 | 0.13 | 0.07 | 81 | 1016.7 |
| 20260506061516 | 55 | 214 | 4.0 | 6.0 | 0.00 | 0.13 | 0.07 | 81 | 1016.7 |
| 20260506061016 | 55 | 200 | 2.0 | 6.0 | 0.00 | 0.13 | 0.07 | 81 | 1016.6 |
| 20260506060446 | 55 | 360 | 4.0 | 6.0 | 0.00 | 0.14 | 0.07 | 81 | 1016.5 |
| 20260506051014 | 57 | 360 | 5.0 | 11.0 | 0.00 | 0.16 | 0.07 | 78 | 1016.2 |
| 20260506050514 | 57 | 175 | 7.0 | 12.0 | 0.00 | 0.16 | 0.07 | 78 | 1016.2 |
| 20260506045014 | 57 | 360 | 4.0 | 8.0 | 0.00 | 0.17 | 0.07 | 77 | 1016.1 |
| 20260506044514 | 57 | 360 | 3.0 | 8.0 | 0.00 | 0.17 | 0.07 | 77 | 1016.0 |
| 20260506043514 | 57 | 204 | 3.0 | 10.0 | 0.00 | 0.19 | 0.07 | 77 | 1015.9 |
| 20260506043014 | 57 | 219 | 8.0 | 10.0 | 0.00 | 0.19 | 0.07 | 77 | 1015.9 |
| 20260506041513 | 58 | 184 | 1.0 | 9.0 | 0.00 | 0.20 | 0.07 | 76 | 1015.6 |
| 20260506040512 | 58 | 360 | 5.0 | 9.0 | 0.00 | 0.21 | 0.07 | 77 | 1015.5 |
| 20260506040014 | 58 | 238 | 5.0 | 11.0 | 0.00 | 0.21 | 0.07 | 77 | 1015.4 |
| 20260506035512 | 58 | 236 | 3.0 | 11.0 | 0.00 | 0.21 | 0.07 | 77 | 1015.4 |
| 20260506034513 | 58 | 360 | 4.0 | 9.0 | 0.00 | 0.21 | 0.07 | 77 | 1015.3 |
| 20260506034012 | 58 | 258 | 2.0 | 9.0 | 0.00 | 0.21 | 0.07 | 76 | 1015.3 |
| 20260506033512 | 58 | 168 | 9.0 | 10.0 | 0.00 | 0.21 | 0.07 | 76 | 1015.1 |
| 20260506032011 | 59 | 360 | 5.0 | 11.0 | 0.00 | 0.21 | 0.07 | 75 | 1014.7 |
| 20260506031511 | 59 | 181 | 4.0 | 10.0 | 0.00 | 0.21 | 0.07 | 75 | 1014.7 |
| 20260506030510 | 59 | 360 | 5.0 | 11.0 | 0.00 | 0.21 | 0.07 | 74 | 1014.6 |
| 20260506030010 | 59 | 188 | 6.0 | 9.0 | 0.00 | 0.21 | 0.07 | 74 | 1014.6 |
| 20260506025511 | 59 | 360 | 5.0 | 9.0 | 0.00 | 0.21 | 0.07 | 74 | 1014.5 |
| 20260506025011 | 59 | 241 | 6.0 | 11.0 | 0.00 | 0.21 | 0.07 | 73 | 1014.5 |
| 20260506024010 | 59 | 207 | 8.0 | 12.0 | 0.00 | 0.21 | 0.07 | 73 | 1014.4 |
| 20260506023510 | 60 | 254 | 7.0 | 11.0 | 0.00 | 0.21 | 0.07 | 73 | 1014.3 |
| 20260506022509 | 60 | 191 | 5.0 | 11.0 | 0.00 | 0.21 | 0.07 | 74 | 1014.2 |
| 20260506022010 | 60 | 175 | 4.0 | 16.0 | 0.00 | 0.21 | 0.07 | 73 | 1014.2 |
| 20260506021510 | 60 | 174 | 6.0 | 16.0 | 0.00 | 0.21 | 0.07 | 73 | 1014.2 |
| 20260506020509 | 60 | 204 | 8.0 | 14.0 | 0.00 | 0.21 | 0.07 | 73 | 1014.2 |
| 20260506020009 | 60 | 360 | 9.0 | 14.0 | 0.00 | 0.21 | 0.07 | 73 | 1014.1 |
| 20260506015511 | 61 | 257 | 3.0 | 14.0 | 0.00 | 0.21 | 0.07 | 73 | 1014.0 |
| 20260506015009 | 61 | 167 | 14.0 | 14.0 | 0.00 | 0.21 | 0.07 | 73 | 1014.0 |
| 20260506014508 | 61 | 252 | 4.0 | 11.0 | 0.00 | 0.21 | 0.07 | 73 | 1014.0 |
| 20260506014008 | 61 | 184 | 2.0 | 11.0 | 0.00 | 0.21 | 0.07 | 73 | 1013.9 |
| 20260506013508 | 61 | 196 | 7.0 | 11.0 | 0.00 | 0.21 | 0.07 | 73 | 1013.9 |
| 20260506012508 | 62 | 183 | 6.0 | 12.0 | 0.00 | 0.21 | 0.07 | 73 | 1013.8 |
| 20260506011508 | 62 | 168 | 7.0 | 12.0 | 0.00 | 0.21 | 0.07 | 73 | 1013.8 |
| 20260506011008 | 62 | 188 | 7.0 | 13.0 | 0.00 | 0.21 | 0.07 | 72 | 1013.9 |
| 20260506010507 | 62 | 219 | 8.0 | 13.0 | 0.00 | 0.21 | 0.07 | 72 | 1013.9 |
| 20260506010008 | 62 | 194 | 7.0 | 10.0 | 0.00 | 0.21 | 0.07 | 72 | 1013.9 |
| 20260506005507 | 63 | 360 | 5.0 | 10.0 | 0.00 | 0.21 | 0.07 | 71 | 1013.8 |
| 20260506005007 | 63 | 261 | 8.0 | 12.0 | 0.00 | 0.21 | 0.07 | 71 | 1013.8 |
| 20260506004507 | 63 | 360 | 5.0 | 12.0 | 0.00 | 0.21 | 0.07 | 71 | 1013.8 |
| 20260506004007 | 63 | 239 | 5.0 | 11.0 | 0.00 | 0.21 | 0.07 | 72 | 1013.7 |
| 20260506003507 | 63 | 209 | 4.0 | 13.0 | 0.00 | 0.21 | 0.07 | 71 | 1013.7 |
| 20260506003007 | 63 | 360 | 5.0 | 13.0 | 0.00 | 0.21 | 0.07 | 71 | 1013.7 |
| 20260506002506 | 63 | 226 | 10.0 | 13.0 | 0.00 | 0.21 | 0.07 | 71 | 1013.6 |
| 20260506002006 | 63 | 201 | 7.0 | 13.0 | 0.00 | 0.21 | 0.07 | 71 | 1013.6 |
| 20260506001506 | 63 | 163 | 6.0 | 11.0 | 0.00 | 0.21 | 0.07 | 70 | 1013.6 |
| 20260506001005 | 63 | 186 | 4.0 | 11.0 | 0.00 | 0.21 | 0.07 | 71 | 1013.6 |
| 20260505235505 | 63 | 130 | 5.0 | 11.0 | 0.00 | 0.21 | 0.07 | 71 | 1013.6 |
| 20260505234506 | 63 | 233 | 3.0 | 10.0 | 0.00 | 0.21 | 0.07 | 71 | 1013.7 |
| 20260505234005 | 63 | 134 | 1.0 | 9.0 | 0.00 | 0.21 | 0.07 | 71 | 1013.7 |
| 20260505233004 | 62 | 208 | 6.0 | 11.0 | 0.00 | 0.21 | 0.07 | 73 | 1013.7 |
| 20260505232504 | 62 | 204 | 3.0 | 11.0 | 0.00 | 0.21 | 0.07 | 72 | 1013.7 |
| 20260505232004 | 62 | 173 | 3.0 | 9.0 | 0.00 | 0.21 | 0.07 | 72 | 1013.8 |
| 20260505231504 | 62 | 167 | 8.0 | 10.0 | 0.00 | 0.21 | 0.07 | 72 | 1013.8 |
| 20260505231004 | 62 | 229 | 3.0 | 10.0 | 0.00 | 0.21 | 0.07 | 72 | 1013.8 |
| 20260505230504 | 62 | 188 | 4.0 | 12.0 | 0.00 | 0.21 | 0.07 | 72 | 1013.8 |
| 20260505230004 | 62 | 182 | 3.0 | 12.0 | 0.00 | 0.21 | 0.07 | 72 | 1013.8 |
| 20260505225505 | 62 | 360 | 12.0 | 12.0 | 0.00 | 0.21 | 0.07 | 72 | 1013.7 |
| 20260505224503 | 62 | 211 | 2.0 | 9.0 | 0.00 | 0.21 | 0.07 | 72 | 1013.8 |
| 20260505224003 | 62 | 165 | 4.0 | 9.0 | 0.00 | 0.21 | 0.07 | 72 | 1013.8 |
| 20260505223504 | 62 | 172 | 7.0 | 9.0 | 0.00 | 0.21 | 0.07 | 73 | 1013.8 |
| 20260505223003 | 62 | 175 | 6.0 | 10.0 | 0.00 | 0.21 | 0.07 | 73 | 1013.8 |
| 20260505222503 | 62 | 211 | 4.0 | 11.0 | 0.00 | 0.21 | 0.07 | 73 | 1013.8 |
| 20260505222003 | 62 | 184 | 4.0 | 11.0 | 0.00 | 0.21 | 0.07 | 74 | 1013.8 |
| 20260505221503 | 62 | 159 | 6.0 | 11.0 | 0.00 | 0.21 | 0.07 | 74 | 1013.9 |
| 20260505221002 | 61 | 148 | 2.0 | 10.0 | 0.00 | 0.21 | 0.07 | 75 | 1013.9 |
| 20260505220502 | 61 | 176 | 4.0 | 11.0 | 0.00 | 0.21 | 0.07 | 75 | 1013.9 |
| 20260505215002 | 61 | 192 | 1.0 | 9.0 | 0.00 | 0.21 | 0.07 | 75 | 1014.0 |
| 20260505214003 | 61 | 146 | 8.0 | 10.0 | 0.00 | 0.21 | 0.07 | 74 | 1014.0 |
| 20260505213501 | 61 | 117 | 3.0 | 10.0 | 0.00 | 0.21 | 0.07 | 74 | 1014.1 |
| 20260505212501 | 62 | 169 | 6.0 | 10.0 | 0.00 | 0.21 | 0.07 | 74 | 1014.1 |
| 20260505212000 | 62 | 177 | 5.0 | 10.0 | 0.00 | 0.21 | 0.07 | 74 | 1014.2 |
| 20260505211500 | 62 | 211 | 4.0 | 10.0 | 0.00 | 0.21 | 0.07 | 73 | 1014.2 |
| 20260505211001 | 62 | 155 | 7.0 | 10.0 | 0.00 | 0.21 | 0.07 | 74 | 1014.1 |
| 20260505210504 | 62 | 154 | 7.0 | 8.0 | 0.00 | 0.21 | 0.07 | 74 | 1014.1 |
| 20260505210000 | 62 | 162 | 6.0 | 8.0 | 0.00 | 0.21 | 0.07 | 74 | 1014.1 |
| 20260505205000 | 61 | 146 | 3.0 | 10.0 | 0.00 | 0.21 | 0.07 | 74 | 1014.2 |
| 20260505204500 | 61 | 204 | 5.0 | 9.0 | 0.00 | 0.21 | 0.07 | 74 | 1014.3 |
| 20260505204001 | 61 | 155 | 4.0 | 7.0 | 0.00 | 0.21 | 0.07 | 75 | 1014.2 |
| 20260505203500 | 61 | 155 | 3.0 | 6.0 | 0.00 | 0.21 | 0.07 | 75 | 1014.2 |
| 20260505203000 | 61 | 191 | 4.0 | 5.0 | 0.00 | 0.21 | 0.07 | 75 | 1014.3 |
| 20260505202459 | 61 | 360 | 1.0 | 6.0 | 0.00 | 0.21 | 0.07 | 75 | 1014.3 |
| 20260505201459 | 61 | 207 | 2.0 | 5.0 | 0.00 | 0.21 | 0.07 | 76 | 1014.3 |
| 20260505200959 | 60 | 232 | 2.0 | 6.0 | 0.00 | 0.21 | 0.07 | 76 | 1014.4 |
| 20260505200502 | 60 | 209 | 1.0 | 6.0 | 0.00 | 0.21 | 0.07 | 76 | 1014.4 |
| 20260505195958 | 60 | 142 | 2.0 | 4.0 | 0.00 | 0.21 | 0.07 | 77 | 1014.5 |
| 20260505195459 | 60 | 207 | 1.0 | 6.0 | 0.00 | 0.21 | 0.07 | 77 | 1014.4 |
| 20260505195000 | 60 | 207 | 1.0 | 8.0 | 0.00 | 0.21 | 0.07 | 76 | 1014.4 |
| 20260505193958 | 60 | 178 | 3.0 | 5.0 | 0.00 | 0.21 | 0.07 | 77 | 1014.4 |
| 20260505193458 | 59 | 257 | 2.0 | 5.0 | 0.00 | 0.21 | 0.07 | 77 | 1014.5 |
| 20260505192957 | 59 | 279 | 1.0 | 6.0 | 0.00 | 0.21 | 0.07 | 77 | 1014.5 |
| 20260505192458 | 60 | 247 | 2.0 | 6.0 | 0.00 | 0.21 | 0.07 | 77 | 1014.4 |
| 20260505191457 | 60 | 360 | 2.0 | 8.0 | 0.00 | 0.21 | 0.07 | 76 | 1014.4 |
| 20260505190957 | 60 | 360 | 5.0 | 8.0 | 0.00 | 0.21 | 0.07 | 77 | 1014.4 |
| 20260505190457 | 60 | 222 | 5.0 | 6.0 | 0.00 | 0.21 | 0.07 | 77 | 1014.4 |
| 20260505185456 | 59 | 242 | 2.0 | 7.0 | 0.00 | 0.21 | 0.07 | 78 | 1014.4 |
| 20260505184957 | 59 | 360 | 1.0 | 7.0 | 0.00 | 0.21 | 0.07 | 80 | 1014.4 |
| 20260505184458 | 58 | 213 | 1.0 | 8.0 | 0.00 | 0.21 | 0.07 | 81 | 1014.3 |
| 20260505184000 | 58 | 360 | 2.0 | 9.0 | 0.00 | 0.21 | 0.07 | 80 | 1014.3 |
| 20260505183456 | 58 | 232 | 4.0 | 9.0 | 0.00 | 0.21 | 0.07 | 80 | 1014.4 |
| 20260505182956 | 58 | 360 | 4.0 | 8.0 | 0.00 | 0.21 | 0.07 | 81 | 1014.4 |
| 20260505182457 | 58 | 360 | 5.0 | 6.0 | 0.00 | 0.21 | 0.07 | 82 | 1014.4 |
| 20260505181956 | 58 | 250 | 3.0 | 6.0 | 0.00 | 0.21 | 0.07 | 83 | 1014.3 |
| 20260505181459 | 57 | 360 | 4.0 | 7.0 | 0.00 | 0.21 | 0.07 | 83 | 1014.4 |
| 20260505180956 | 57 | 265 | 1.0 | 7.0 | 0.00 | 0.21 | 0.07 | 83 | 1014.4 |
| 20260505180457 | 57 | 240 | 2.0 | 8.0 | 0.00 | 0.21 | 0.07 | 83 | 1014.3 |
| 20260505175455 | 57 | 283 | 7.0 | 7.0 | 0.00 | 0.21 | 0.07 | 83 | 1014.2 |
| 20260505174955 | 57 | 360 | 4.0 | 7.0 | 0.00 | 0.21 | 0.07 | 83 | 1014.2 |
| 20260505173955 | 57 | 270 | 4.0 | 8.0 | 0.00 | 0.21 | 0.07 | 84 | 1014.2 |
| 20260505173454 | 56 | 360 | 5.0 | 6.0 | 0.00 | 0.21 | 0.07 | 85 | 1014.1 |
| 20260505172454 | 56 | 209 | 3.0 | 7.0 | 0.00 | 0.21 | 0.07 | 86 | 1014.0 |
| 20260505170954 | 56 | 214 | 2.0 | 8.0 | 0.00 | 0.21 | 0.07 | 87 | 1014.0 |
| 20260505170454 | 56 | 360 | 4.0 | 8.0 | 0.00 | 0.21 | 0.07 | 87 | 1014.1 |
| 20260505165953 | 55 | 256 | 3.0 | 7.0 | 0.00 | 0.21 | 0.07 | 88 | 1014.0 |
| 20260505165453 | 55 | 360 | 4.0 | 8.0 | 0.00 | 0.21 | 0.07 | 88 | 1014.1 |
| 20260505164953 | 55 | 232 | 5.0 | 8.0 | 0.00 | 0.21 | 0.07 | 89 | 1014.1 |
| 20260505164453 | 55 | 273 | 1.0 | 6.0 | 0.00 | 0.21 | 0.07 | 89 | 1014.1 |
| 20260505163953 | 55 | 238 | 2.0 | 6.0 | 0.00 | 0.21 | 0.07 | 89 | 1014.1 |
| 20260505163453 | 55 | 171 | 4.0 | 6.0 | 0.00 | 0.21 | 0.07 | 89 | 1014.0 |
| 20260505162952 | 55 | 173 | 3.0 | 8.0 | 0.00 | 0.21 | 0.07 | 89 | 1014.0 |
| 20260505162453 | 55 | 271 | 3.0 | 8.0 | 0.00 | 0.21 | 0.07 | 89 | 1014.0 |
| 20260505161952 | 55 | 167 | 3.0 | 5.0 | 0.00 | 0.21 | 0.07 | 89 | 1013.9 |
| 20260505161456 | 55 | 360 | 2.0 | 4.0 | 0.00 | 0.21 | 0.07 | 89 | 1013.9 |
| 20260505160951 | 55 | 360 | 4.0 | 5.0 | 0.00 | 0.21 | 0.07 | 89 | 1013.9 |